This demonstration page uses our WeatherBlox Daily Observations layout. Learn more.

Left ArrowRight Arrow

39.51506, -84.39828

Hourly Observations for March 6, 2021

Temp ( °F °C ) Dew Point ( °F °C ) Humidity (%) Winds ( mph kmh ) Pressure ( in mb ) Visibility ( mi km ) Precip ( " mm )
12:15 am 00:15 Clear 33 0.4 22 -5.8 64 64 NNW 6 9 30.30 1026 10 16 N/A
12:35 am 00:35 Clear 33 0.3 22 -5.7 64 64 NW 5 7 30.30 1026 10 16 N/A
12:55 am 00:55 Clear 32 -0.2 21 -5.9 66 66 NNW 5 7 30.31 1026 10 16 N/A
1:15 am 01:15 Clear 31 -0.5 21 -6 67 67 N 3 6 30.32 1027 10 16 N/A
1:35 am 01:35 Clear 31 -0.7 21 -6 68 68 N 3 6 30.32 1027 10 16 N/A
1:55 am 01:55 Clear 30 -1 21 -5.9 70 70 N 5 7 30.32 1027 10 16 N/A
2:15 am 02:15 Clear 30 -1.3 21 -5.9 71 71 N 3 6 30.32 1027 10 16 N/A
2:35 am 02:35 Clear 30 -1.3 22 -5.8 72 72 N 5 7 30.33 1027 10 16 N/A
2:55 am 02:55 Clear 29 -1.5 22 -5.6 74 74 N 3 6 30.32 1027 10 16 N/A
3:15 am 03:15 Clear 29 -1.7 22 -5.8 74 74 N 5 7 30.33 1027 10 16 N/A
3:35 am 03:35 Clear 29 -1.8 22 -5.8 74 74 NNE 3 6 30.32 1027 10 16 N/A
3:55 am 03:55 Clear 28 -2.2 21 -5.9 76 76 NNE 3 6 30.33 1027 10 16 N/A
4:15 am 04:15 Clear 28 -2.3 22 -5.8 77 77 N N/A 30.33 1027 10 16 N/A
4:35 am 04:35 Clear 28 -2.5 21 -5.9 78 78 NNE 3 6 30.33 1027 10 16 N/A
4:55 am 04:55 Clear 27 -2.8 21 -6.2 78 78 NNE 3 6 30.34 1028 10 16 N/A
5:15 am 05:15 Clear 27 -2.8 20 -6.4 77 77 NNE 3 6 30.34 1028 10 16 N/A
5:35 am 05:35 Clear 26 -3.5 19 -7.1 76 76 N N/A 30.36 1028 10 16 N/A
5:55 am 05:55 Clear 24 -4.5 18 -7.8 78 78 NNW 5 7 30.36 1028 10 16 N/A
6:15 am 06:15 Clear 26 -3.2 19 -7.3 74 74 N 5 7 30.35 1028 10 16 N/A
6:35 am 06:35 Clear 26 -3.2 19 -7.5 72 72 N 3 6 30.36 1028 10 16 N/A
6:55 am 06:55 Clear 26 -3.4 19 -7.3 75 75 NNE 3 6 30.36 1028 10 16 N/A
7:15 am 07:15 Sunny 26 -3.5 19 -7.4 75 75 N 5 7 30.37 1028 10 16 N/A
7:35 am 07:35 Sunny 26 -3.4 19 -7.3 75 75 N 5 7 30.37 1029 10 16 N/A
7:55 am 07:55 Sunny 28 -2.2 20 -6.6 72 72 N 5 7 30.38 1029 10 16 N/A
8:15 am 08:15 Sunny 30 -1.3 20 -6.5 68 68 N 7 11 30.38 1029 10 16 N/A
8:35 am 08:35 Sunny 31 -0.7 20 -6.5 65 65 NNW 7 11 30.39 1029 10 16 N/A
8:55 am 08:55 Sunny 32 -0.2 20 -6.4 63 63 N 10 17 30.40 1029 10 16 N/A
9:15 am 09:15 Sunny 32 0.2 21 -6.3 62 62 N 8 13 30.40 1029 10 16 N/A
9:35 am 09:35 Sunny 33 0.5 19 -7.2 57 57 N 10 17 30.40 1030 10 16 N/A
9:55 am 09:55 Sunny 34 1.3 20 -6.7 56 56 N 9 15 30.40 1030 10 16 N/A
10:15 am 10:15 Sunny 35 1.8 19 -7.2 52 52 NNW 10 17 30.39 1029 10 16 N/A
10:35 am 10:35 Sunny 35 1.8 18 -7.7 50 50 N 8 13 30.39 1029 10 16 N/A
10:55 am 10:55 Sunny 37 2.7 18 -7.6 47 47 N 9 15 30.39 1029 10 16 N/A
11:15 am 11:15 Sunny 38 3.1 19 -7.4 46 46 N 3 6 30.38 1029 10 16 N/A
11:35 am 11:35 Sunny 39 3.7 17 -8.3 42 42 NNE 3 6 30.38 1029 10 16 N/A
11:55 am 11:55 Sunny 41 4.8 17 -8.2 39 39 N 10 17 30.37 1029 10 16 N/A
12:15 pm 12:15 Sunny 41 4.9 16 -9 36 36 NNE 12 19 30.37 1029 10 16 N/A
12:35 pm 12:35 Sunny 42 5.4 16 -9 35 35 N 6 9 30.37 1028 10 16 N/A
12:55 pm 12:55 Sunny 42 5.8 17 -8.4 36 36 WNW 13 20 30.36 1028 10 16 N/A
1:15 pm 13:15 Sunny 43 5.9 16 -8.7 35 35 N 9 15 30.36 1028 10 16 N/A
1:35 pm 13:35 Sunny 43 6.3 16 -8.7 34 34 NW 16 26 30.35 1028 10 16 N/A
1:55 pm 13:55 Sunny 43 6.1 16 -9 33 33 WNW 10 17 30.35 1028 10 16 N/A
2:15 pm 14:15 Sunny 44 6.7 17 -8.5 33 33 NNW 6 9 30.34 1027 10 16 N/A
2:35 pm 14:35 Sunny 44 6.7 15 -9.6 30 30 WSW 6 9 30.33 1027 10 16 N/A
2:55 pm 14:55 Sunny 44 6.7 14 -9.8 30 30 NW 9 15 30.33 1027 10 16 N/A
3:15 pm 15:15 Sunny 44 6.9 15 -9.2 31 31 NNW 8 13 30.33 1027 10 16 N/A
3:35 pm 15:35 Sunny 45 7.1 15 -9.4 30 30 N 12 19 30.33 1027 10 16 N/A
3:55 pm 15:55 Sunny 45 7.1 16 -9.1 31 31 WNW 9 15 30.33 1027 10 16 N/A
4:15 pm 16:15 Sunny 45 7.1 15 -9.5 30 30 WNW 7 11 30.32 1027 10 16 N/A
4:35 pm 16:35 Sunny 45 7.1 15 -9.3 30 30 NW 7 11 30.32 1027 10 16 N/A
4:55 pm 16:55 Sunny 45 7.1 16 -8.7 32 32 WNW 7 11 30.31 1026 10 16 N/A
5:15 pm 17:15 Sunny 44 6.9 16 -9.1 31 31 NNW 9 15 30.31 1026 10 16 N/A
5:35 pm 17:35 Sunny 44 6.7 16 -8.7 33 33 W 8 13 30.31 1026 10 16 N/A
5:55 pm 17:55 Sunny 43 6.3 16 -8.7 34 34 WNW 7 11 30.31 1026 10 16 N/A
6:15 pm 18:15 Sunny 42 5.7 16 -8.9 34 34 NNW 7 11 30.31 1026 10 16 N/A
6:35 pm 18:35 Sunny 41 5 16 -9 36 36 NW 3 6 30.32 1027 10 16 N/A
6:55 pm 18:55 Clear 40 4.6 17 -8.1 40 40 NW 5 7 30.32 1027 10 16 N/A
7:15 pm 19:15 Clear 35 1.9 20 -6.6 54 54 N N/A 30.33 1027 10 16 N/A
7:35 pm 19:35 Clear 34 1 21 -6.1 59 59 N 3 6 30.33 1027 10 16 N/A
7:55 pm 19:55 Clear 31 -0.4 21 -6 66 66 N N/A 30.34 1027 10 16 N/A
8:15 pm 20:15 Clear 31 -0.8 22 -5.5 71 71 N N/A 30.34 1027 10 16 N/A
8:35 pm 20:35 Clear 30 -0.9 21 -6 69 69 N N/A 30.34 1027 10 16 N/A
8:55 pm 20:55 Clear 30 -1 20 -6.5 67 67 N N/A 30.34 1027 10 16 N/A
9:15 pm 21:15 Clear 29 -1.6 21 -6.2 71 71 N N/A 30.34 1027 10 16 N/A
9:35 pm 21:35 Clear 28 -2 21 -6.1 74 74 N N/A 30.34 1027 10 16 N/A
9:55 pm 21:55 Clear 28 -2.1 22 -5.6 77 77 N N/A 30.34 1027 10 16 N/A
10:15 pm 22:15 Clear 27 -2.7 22 -5.3 83 83 N N/A 30.34 1028 10 16 N/A
10:35 pm 22:35 Clear 27 -2.8 21 -6.1 78 78 N N/A 30.33 1027 10 16 N/A
10:55 pm 22:55 Clear 26 -3.2 21 -5.9 82 82 N N/A 30.33 1027 10 16 N/A
11:15 pm 23:15 Clear 26 -3.5 22 -5.7 85 85 N N/A 30.34 1027 10 16 N/A
11:35 pm 23:35 Clear 26 -3.5 22 -5.6 86 86 N N/A 30.34 1027 10 16 N/A
11:55 pm 23:55 Clear 25 -3.8 21 -6 85 85 N N/A 30.34 1027 10 16 N/A

Powered by AerisWeather